STARLINK-30505, 57972

Orbit data source: Space-Track

STARLINK-30505, 57972 is a payload satellite owned by SpaceX/Seattle (US) in LEO that was launched on Sat, 30 Sep 2023 UTC via an FALCON 9 launch vehicle from the Air Force Eastern Test Range (AFETR). Payload-class satellites include a variety of spacecraft equipped with specific instruments for various scientific and technological missions. These include communications satellites like Starlink; space stations such as the ISS; scientific satellites like the Hubble; Earth observation satellites from companies like Planet Labs, Umbra, and HawkEye 360; GPS; miniature CubeSats for education and research; and military/defense satellites.

Loading next visibility...
Identifier
57972, 2023-151J
Orbit
LEO
Country
Flag of USUS
Related business
Manufacturer
SpaceX/Seattle
Mission
Operational Commercial Communications
Bus & Motor
STARLINK V2M, Unknown motor
Mass
730 kg wet, ~700 kg dry
Launch date (UTC)
2023-09-30 (3 years ago)
Launch vehicle
FALCON 9
Launch site
Air Force Eastern Test Range (AFETR)
Object type
Payload
Rocket body
Debris
Shape & HBR
Box + 2 Pan, 17.7 m
Radar Cross Section
33.884 m², Large (>1 m²)

Expand to show TLE details & history
Last TLE update: 10 hours ago

TLE from 10 hours ago
0 STARLINK-30505
1 57972U 23151J   26221.66671295 -.00022522  00000-0 -81109-3 0  9994
2 57972  43.0013 192.3263 0000907 268.0326 288.9103 15.27592214  5826
Epoch: 2026-08-09T16:00Z
TLE epoch observation values (Epoch: 2026-08-09T16:00:03.998Z)
Latitude
-11.5785°
Longitude
-173.23085°
Altitude
484.806 km
Speed
7.624 km/s
True Right ascension
01h 39m 47s
True Declination
-11° 30' 30"
Sunlit
Object was in full shadow at epoch
Visualization orbit readout
Latitude
Unknown
Longitude
Unknown
Altitude
Unknown
Speed
Unknown
Apparent Right ascension
Unknown
Apparent Declination
Unknown
Sunlit
N/A
Visualization observer readout
Local Sidereal Time
16:03:29
Azimuth
Unknown
Elevation
Unknown
Doppler factor
Unknown
Orbital elements
Apogee altitude
485.58 km
Perigee altitude
484.335 km
Semi-major axis
6,863.094 km
Eccentricity
0.00009
Inclination
43.0013°
RAAN
192.3263°
Arg. of periapsis
268.0326°
True anomaly
288.90047°
Mean anomaly
288.9103°
Eccentric anomaly
288.90538°
Mean motion
3.81736 °/min
Orbital period
94.31 mins
BSTAR
-0.00081109
Loading maneuver chart data...
Computing Atmospheric mass density...
Loading historical data...
Loading historical data...
Loading historical data...
Loading historical data...
Loading historical data...
Loading historical data...
Loading historical data...

Documentation

Showing up to 5 results
|